TimeEST,TemperatureF,Dew PointF,Humidity,Sea Level PressureIn,VisibilityMPH,Wind Direction,Wind SpeedMPH,Gust SpeedMPH,PrecipitationIn,Events,Conditions,WindDirDegrees,DateUTC
12:53 AM,41.0,28.9,62,30.21,10.0,SSE,3.5,-,N/A,,Overcast,160,2012-11-30 05:53:00
1:53 AM,41.0,28.0,60,30.19,10.0,SSE,3.5,-,N/A,,Overcast,160,2012-11-30 06:53:00
2:53 AM,39.9,28.0,63,30.20,10.0,Calm,Calm,-,N/A,,Overcast,0,2012-11-30 07:53:00
3:53 AM,41.0,28.9,62,30.20,10.0,South,3.5,-,N/A,,Overcast,180,2012-11-30 08:53:00
4:53 AM,41.0,28.9,62,30.18,10.0,South,4.6,-,N/A,,Overcast,180,2012-11-30 09:53:00
5:53 AM,37.9,28.0,68,30.19,10.0,South,4.6,-,N/A,,Scattered Clouds,190,2012-11-30 10:53:00
6:53 AM,36.0,27.0,70,30.18,10.0,South,4.6,-,N/A,,Clear,180,2012-11-30 11:53:00
7:53 AM,36.0,27.0,70,30.21,10.0,Calm,Calm,-,N/A,,Clear,0,2012-11-30 12:53:00
8:53 AM,37.9,28.0,68,30.19,10.0,South,6.9,-,N/A,,Clear,180,2012-11-30 13:53:00
9:53 AM,43.0,30.0,60,30.19,10.0,South,8.1,-,N/A,,Clear,190,2012-11-30 14:53:00
10:53 AM,45.0,28.9,53,30.17,10.0,SSE,11.5,-,N/A,,Mostly Cloudy,160,2012-11-30 15:53:00
11:53 AM,48.0,30.0,50,30.16,10.0,SSW,8.1,-,N/A,,Mostly Cloudy,210,2012-11-30 16:53:00
12:53 PM,50.0,30.0,46,30.14,10.0,SSW,9.2,-,N/A,,Scattered Clouds,210,2012-11-30 17:53:00
1:53 PM,50.0,30.9,48,30.13,10.0,Variable,5.8,-,N/A,,Partly Cloudy,0,2012-11-30 18:53:00
2:53 PM,50.0,30.9,48,30.12,10.0,South,4.6,-,N/A,,Scattered Clouds,190,2012-11-30 19:53:00
3:53 PM,51.1,30.9,46,30.13,10.0,Calm,Calm,-,N/A,,Mostly Cloudy,0,2012-11-30 20:53:00
4:53 PM,48.9,34.0,56,30.15,10.0,Calm,Calm,-,N/A,,Scattered Clouds,0,2012-11-30 21:53:00
5:53 PM,48.0,32.0,54,30.17,10.0,ENE,3.5,-,N/A,,Mostly Cloudy,60,2012-11-30 22:53:00
6:53 PM,46.9,32.0,56,30.19,10.0,NE,3.5,-,N/A,,Overcast,50,2012-11-30 23:53:00
7:53 PM,46.0,32.0,58,30.21,10.0,NE,5.8,-,N/A,,Overcast,40,2012-12-01 00:53:00
8:53 PM,43.0,32.0,65,30.21,10.0,ENE,4.6,-,N/A,,Overcast,60,2012-12-01 01:53:00
9:53 PM,41.0,32.0,70,30.22,10.0,NE,3.5,-,N/A,,Mostly Cloudy,40,2012-12-01 02:53:00
10:53 PM,39.0,33.1,79,30.21,9.0,ENE,4.6,-,N/A,,Clear,60,2012-12-01 03:53:00
11:53 PM,37.0,33.1,86,30.21,6.0,ENE,3.5,-,N/A,,Clear,60,2012-12-01 04:53:00